Change the Weather History Date:

Thursday, April 25, 2013

  Actual Average Record
Temperature  
Mean Temperature 56 °F -  
Max Temperature 68 °F 58 °F 78 °F (2007)
Min Temperature 45 °F 44 °F 37 °F (2004)
Degree Days  
Heating Degree Days 8    
Growing Degree Days 6 (Base 50)    
Moisture  
Dew Point 50 °F    
Average Humidity 85    
Maximum Humidity 100    
Minimum Humidity 60    
Precipitation  
Precipitation 0.00 in - - ()
Sea Level Pressure  
Sea Level Pressure 30.18 in    
Wind  
Wind Speed 5 mph ()    
Max Wind Speed 14 mph    
Max Gust Speed -    
Visibility 4.6 miles    
Events Rain    
Averages and records for this station are not official NWS values.
T = Trace of Precipitation, MM = Missing Value Source: Averaged Metar Reports

Daily Weather History Graph

Daily Weather History Graph

Search for Another Location

Airport or City:

Trip Planner

Search our weather history database for the weather conditions in past years. The results will help you decide how hot, cold, wet, or windy it might be!

Date:

Astronomy

Apr. 25, 2013 Rise Set
Actual Time 6:15 AM CEST 8:55 PM CEST
Civil Twilight 5:36 AM CEST 9:34 PM CEST
Nautical Twilight 4:46 AM CEST 10:25 PM CEST
Astronomical Twilight 3:44 AM CEST 11:28 PM CEST
Moon 8:52 PM CEST (4/25) 5:51 AM CEST (4/25)
Length of Visible Light 15h 58m
Length of Day
14h 39m
Full, 100% of the Moon is Illuminated
Apr 25
Full
Apr 25
Full
May 2
Last Quarter
May 10
New
May 18
First Quarter

Hourly Weather History & Observations

Time (CEST) Temp. Windchill Dew Point Humidity Pressure Visibility Wind Dir Wind Speed Gust Speed Precip Events Conditions
12:25 AM 50.0 °F - 48.2 °F 94% 30.21 in 3.7 mi West 3.5 mph - N/A   Overcast
12:55 AM 50.0 °F - 48.2 °F 94% 30.21 in 3.7 mi West 4.6 mph - N/A   Overcast
1:25 AM 50.0 °F - 48.2 °F 94% 30.24 in 3.1 mi WNW 3.5 mph - N/A   Overcast
1:41 AM 50.0 °F - 48.2 °F 94% 30.21 in - NW 5.8 mph - N/A   Overcast
1:45 AM 50.0 °F - 46.4 °F 87% 30.21 in 3.1 mi NW 5.8 mph - N/A   Overcast
1:55 AM 48.2 °F - 46.4 °F 93% 30.21 in 4.3 mi NW 2.3 mph - N/A   Mostly Cloudy
2:00 AM 48 °F - 46 °F 89% 30.24 in 4 mi NW 2.2 mph - -   Mist
2:25 AM 48.2 °F - 46.4 °F 93% 30.24 in 3.7 mi West 4.6 mph - N/A   Overcast
2:55 AM 46.4 °F 45.2 °F 44.6 °F 93% 30.24 in 3.7 mi NNW 3.5 mph - N/A   Mostly Cloudy
3:13 AM 46.4 °F 45.2 °F 44.6 °F 93% 30.24 in 3.7 mi North 3.5 mph - N/A   Overcast
3:17 AM 46.4 °F 45.2 °F 44.6 °F 93% 30.24 in 3.7 mi North 3.5 mph - N/A   Overcast
3:25 AM 46.4 °F 44.3 °F 44.6 °F 93% 30.24 in 3.7 mi North 4.6 mph - N/A   Overcast
3:31 AM 46.4 °F 44.3 °F 44.6 °F 93% 30.24 in 3.1 mi North 4.6 mph - N/A   Overcast
3:41 AM 46.4 °F 43.5 °F 44.6 °F 93% 30.24 in - North 5.8 mph - N/A   Overcast
3:45 AM 46.4 °F 43.5 °F 44.6 °F 93% 30.24 in 3.1 mi North 5.8 mph - N/A   Overcast
3:55 AM 46.4 °F 44.3 °F 44.6 °F 93% 30.24 in 2.8 mi NNE 4.6 mph - N/A   Overcast
4:01 AM 46.4 °F 44.3 °F 44.6 °F 93% 30.24 in - NNE 4.6 mph - N/A   Overcast
4:49 AM 46.4 °F 43.5 °F 44.6 °F 93% 30.24 in 1.4 mi ESE 5.8 mph - N/A   Mostly Cloudy
4:55 AM 46.4 °F 44.3 °F 44.6 °F 93% 30.24 in 1.4 mi ESE 4.6 mph - N/A   Overcast
4:59 AM 46.4 °F 45.2 °F 44.6 °F 93% 30.24 in 1.4 mi ESE 3.5 mph - N/A   Overcast
5:15 AM 46.4 °F 45.2 °F 44.6 °F 93% 30.24 in - East 3.5 mph - N/A   Overcast
5:25 AM 46.4 °F 45.2 °F 44.6 °F 93% 30.24 in - East 3.5 mph - N/A   Overcast
5:55 AM 46.4 °F 45.2 °F 44.6 °F 93% 30.24 in 1.9 mi East 3.5 mph - N/A   Overcast
6:25 AM 46.4 °F - 44.6 °F 93% 30.24 in 1.8 mi East 2.3 mph - N/A   Overcast
6:55 AM 46.4 °F - 46.4 °F 100% 30.24 in 1.6 mi East 2.3 mph - N/A   Overcast
7:25 AM 48.2 °F - 46.4 °F 93% 30.24 in 1.7 mi SE 3.5 mph - N/A   Overcast
7:55 AM 48.2 °F - 48.2 °F 100% 30.24 in - SSE 3.5 mph - N/A   Mostly Cloudy
8:00 AM 49 °F - 48 °F 95% 30.25 in 2 mi SSE 4.5 mph - -   Mist
8:02 AM 50.0 °F - 48.2 °F 94% 30.24 in - SSE 3.5 mph - N/A   Mostly Cloudy
8:09 AM 50.0 °F - 48.2 °F 94% 30.24 in - SSE 2.3 mph - N/A   Mostly Cloudy
8:10 AM 50.0 °F - 48.2 °F 94% 30.24 in - SSE 2.3 mph - N/A   Mostly Cloudy
8:16 AM 50.0 °F - 48.2 °F 94% 30.24 in - SSE 2.3 mph - N/A   Mostly Cloudy
8:25 AM 50.0 °F - 48.2 °F 94% 30.24 in - SSE 2.3 mph - N/A   Mostly Cloudy
8:34 AM 50.0 °F - 48.2 °F 94% 30.24 in - South 2.3 mph - N/A   Overcast
8:37 AM 50.0 °F - 48.2 °F 94% 30.24 in - South 2.3 mph - N/A   Overcast
8:46 AM 50.0 °F - 48.2 °F 94% 30.24 in 3.1 mi South 2.3 mph - N/A   Overcast
8:55 AM 50.0 °F - 50.0 °F 100% 30.24 in 3.1 mi South 2.3 mph - N/A   Overcast
9:06 AM 51.8 °F - 50.0 °F 94% 30.24 in 3.1 mi South 2.3 mph - N/A   Overcast
9:09 AM 51.8 °F - 50.0 °F 94% 30.24 in 3.1 mi South 2.3 mph - N/A   Overcast
9:25 AM 51.8 °F - 50.0 °F 94% 30.24 in 3.1 mi South 2.3 mph - N/A   Overcast
9:55 AM 53.6 °F - 51.8 °F 94% 30.21 in 3.7 mi South 4.6 mph - N/A   Overcast
10:25 AM 55.4 °F - 51.8 °F 88% 30.21 in 3.7 mi South 5.8 mph - N/A   Overcast
10:55 AM 57.2 °F - 51.8 °F 82% 30.21 in 4.3 mi South 6.9 mph - N/A   Overcast
11:04 AM 57.2 °F - 53.6 °F 88% 30.21 in 5.0 mi South 8.1 mph - N/A   Overcast
11:05 AM 57.2 °F - 53.6 °F 88% 30.21 in 4.3 mi South 8.1 mph - N/A   Overcast
11:15 AM 57.2 °F - 53.6 °F 88% 30.21 in 5.0 mi South 8.1 mph - N/A   Overcast
11:16 AM 57.2 °F - 53.6 °F 88% 30.21 in 4.3 mi South 8.1 mph - N/A   Overcast
11:25 AM 59.0 °F - 53.6 °F 82% 30.21 in 5.0 mi South 8.1 mph - N/A   Overcast
11:29 AM 59.0 °F - 53.6 °F 82% 30.21 in 4.3 mi South 8.1 mph - N/A   Overcast
11:34 AM 59.0 °F - 53.6 °F 82% 30.21 in 5.0 mi South 8.1 mph - N/A   Overcast
11:39 AM 59.0 °F - 53.6 °F 82% 30.21 in 4.3 mi South 8.1 mph - N/A   Overcast
11:40 AM 59.0 °F - 53.6 °F 82% 30.21 in 5.0 mi South 8.1 mph - N/A   Overcast
11:51 AM 59.0 °F - 53.6 °F 82% 30.21 in 4.3 mi South 8.1 mph - N/A   Overcast
11:55 AM 59.0 °F - 51.8 °F 77% 30.21 in 5.0 mi South 8.1 mph - N/A   Overcast
12:09 PM 59.0 °F - 53.6 °F 82% 30.21 in 4.3 mi South 9.2 mph - N/A   Overcast
12:13 PM 59.0 °F - 53.6 °F 82% 30.21 in 5.0 mi South 9.2 mph - N/A   Overcast
12:25 PM 60.8 °F - 53.6 °F 77% 30.21 in 5.6 mi South 8.1 mph - N/A   Overcast
12:43 PM 60.8 °F - 53.6 °F 77% 30.18 in 6.2 mi South 8.1 mph - N/A   Overcast
12:55 PM 60.8 °F - 53.6 °F 77% 30.18 in 6.2 mi South 9.2 mph - N/A   Overcast
1:25 PM 62.6 °F - 53.6 °F 72% 30.18 in 6.2 mi South 10.4 mph - N/A   Overcast
1:55 PM 62.6 °F - 53.6 °F 72% 30.15 in 6.2 mi South 10.4 mph - N/A   Overcast
2:00 PM 63 °F - 53 °F 60% 30.17 in 7 mi SSW 8.9 mph - -   Partly Cloudy
2:25 PM 64.4 °F - 53.6 °F 68% 30.15 in 6.2 mi SSW 11.5 mph - N/A   Overcast
2:55 PM 64.4 °F - 53.6 °F 68% 30.12 in 6.2 mi SSW 11.5 mph - N/A   Mostly Cloudy
3:25 PM 66.2 °F - 55.4 °F 68% 30.12 in 6.2 mi SW 12.7 mph - N/A   Mostly Cloudy
3:55 PM 66.2 °F - 55.4 °F 68% 30.09 in 6.2 mi SSW 11.5 mph - N/A   Overcast
4:25 PM 66.2 °F - 55.4 °F 68% 30.09 in 6.2 mi SSW 12.7 mph - N/A   Overcast
4:31 PM 68.0 °F - 55.4 °F 64% 30.09 in 6.2 mi SSW 13.8 mph - N/A   Overcast
4:55 PM 66.2 °F - 55.4 °F 68% 30.09 in 6.2 mi SSW 13.8 mph - N/A   Mostly Cloudy
5:25 PM 66.2 °F - 55.4 °F 68% 30.06 in 5.6 mi SW 12.7 mph - N/A   Haze
5:55 PM 64.4 °F - 55.4 °F 73% 30.06 in 5.6 mi SSW 10.4 mph - N/A Rain Light Rain
6:25 PM 64.4 °F - 55.4 °F 73% 30.06 in 5.0 mi WSW 12.7 mph - N/A   Haze
6:55 PM 62.6 °F - 53.6 °F 72% 30.04 in 6.2 mi WSW 11.5 mph - N/A   Mostly Cloudy
7:25 PM 60.8 °F - 51.8 °F 72% 30.04 in 6.2 mi WSW 9.2 mph - N/A   Scattered Clouds
7:55 PM 60.8 °F - 51.8 °F 72% 30.01 in 6.2 mi SSW 6.9 mph - N/A   Overcast
8:00 PM 61 °F - 51 °F 61% 30.03 in 13 mi SSW 6.7 mph - -   Partly Cloudy
8:25 PM 60.8 °F - 50.0 °F 68% 30.01 in 6.2 mi SSW 8.1 mph - N/A   Overcast
8:55 PM 59.0 °F - 50.0 °F 72% 30.01 in 6.2 mi SSW 4.6 mph - N/A   Overcast
9:25 PM 57.2 °F - 50.0 °F 77% 30.01 in 6.2 mi SW 5.8 mph - N/A   Overcast
9:55 PM 55.4 °F - 50.0 °F 82% 30.01 in 6.2 mi SW 4.6 mph - N/A   Overcast
10:25 PM 55.4 °F - 50.0 °F 82% 30.01 in 6.2 mi SW 4.6 mph - N/A   Overcast
10:55 PM 53.6 °F - 50.0 °F 88% 30.01 in 6.2 mi SW 3.5 mph - N/A   Overcast
11:25 PM 55.4 °F - 50.0 °F 82% 29.98 in 5.6 mi WSW 4.6 mph - N/A   Overcast
11:55 PM 53.6 °F - 48.2 °F 82% 29.98 in 5.6 mi SW 3.5 mph - N/A   Overcast
11:57 PM 51.8 °F - 48.2 °F 88% 29.98 in 4.3 mi SW 3.5 mph - N/A   Overcast